Flag for Canada Weather past 2 weeks in Welland, Ontario, Canada

Now
4 °F

Frigid.


Feels Like: -10 °F
Forecast: -3 / 17 °F
Wind: 9 mph from West

Location: Port Colborne Airport

Current Time: Feb 28, 2015 at 11:11:11 AM

Latest Report: Feb 28, 2015 at 10:00 AM


Visibility: N/A

Pressure: 30.83 "Hg

Humidity: 69%

Dew point: -3 °F

Location of WellandLocation

Historic Weather in Welland — Graph

°F

Welland temperature yesterday

Maximum temperature yesterday: 11 °F (at 3:00 PM)
Minimum temperature yesterday: -3 °F (at 7:00 AM)
Average temperature yesterday: 5 °F

Past Weeks' High & Low Weather Summary

 TemperatureHumidityPressure
High22 °F (Feb 21, 5:00 PM)91% (Feb 14, 4:00 AM)30.83 "Hg (Feb 14, 4:00 AM)
Low-13 °F (Feb 16, 6:00 AM)33% (Feb 19, 4:00 PM)29.55 "Hg (Feb 14, 1:00 PM)
Average6 °F70%30.15 "Hg
* Reported Feb 13 9:00 AM — Feb 28 9:00 AM, Welland, Weather by CustomWeather, © 2015

Note: Actual official high and low records may vary slightly from our data, if they occured in-between our weather recording intervals... More about our weather records

Advertising

Welland weather history for previous 24 hours

 ConditionsComfort  
Time TempWeatherWind HumidityBarometerVisibility
9:00 AM
Sat, Feb 28
3 °FFrigid.12 mph68%30.83 "HgN/A
8:00 AM1 °FFrigid.9 mph71%30.81 "HgN/A
7:00 AM1 °FFrigid.8 mph72%30.79 "HgN/A
6:00 AM1 °FFrigid.9 mph74%30.77 "HgN/A
5:00 AM2 °FFrigid.10 mph73%30.75 "HgN/A
4:00 AM2 °FFrigid.10 mph74%30.73 "HgN/A
3:00 AM1 °FFrigid.7 mph76%30.73 "HgN/A
2:00 AM2 °FFrigid.9 mph77%30.73 "HgN/A
1:00 AM2 °FFrigid.12 mph77%30.72 "HgN/A
12:00 AM3 °FFrigid.12 mph76%30.70 "HgN/A
11:00 PM
Fri, Feb 27
2 °FFrigid.9 mph77%30.69 "HgN/A
10:00 PM2 °FFrigid.9 mph75%30.69 "HgN/A
9:00 PM5 °FFrigid.17 mph77%30.66 "HgN/A
8:00 PM6 °FFrigid.16 mph78%30.65 "HgN/A
7:00 PM7 °FFrigid.18 mph77%30.63 "HgN/A
6:00 PM8 °FFrigid.21 mph75%30.61 "HgN/A
5:00 PM10 °FFrigid.25 mph71%30.60 "HgN/A
4:00 PM10 °FCold.26 mph71%30.58 "HgN/A
3:00 PM11 °FCold.20 mph61%30.57 "HgN/A
2:00 PM9 °FFrigid.20 mph66%30.56 "HgN/A
1:00 PM8 °FFrigid.17 mph71%30.56 "HgN/A
12:00 PM6 °FFrigid.14 mph69%30.56 "HgN/A
11:00 AM4 °FFrigid.10 mph71%30.55 "HgN/A
Weather by CustomWeather, © 2015

See weather overviewHow to use our weather pages